Regional Weather Roundup
Issued by NWS

Home | Current Version | Previous Version | Text Only | Print | Product List | Glossary On
Versions: 1 2 3 4 5 6 7 8 9 10 11 12 13 14 15 16 17 18 19 20 21 22 23 24 25 26 27 28 29 30 31 32 33 34 35 36 37 38 39 40 41 42 43 44 45 46 47 48 49 50
000
ASUS45 KPSR 242310
RWRAZ

ARIZONA REGIONAL HOURLY WEATHER ROUNDUP
NATIONAL WEATHER SERVICE PHOENIX AZ
400 PM MST FRI OCT 24 2014

NOTE: FAIR INDICATES FEW OR NO CLOUDS BELOW 12,000 FEET WITH NO
SIGNIFICANT WEATHER AND/OR OBSTRUCTIONS TO VISIBILITY.

AZZ001>003-036-250000-
NORTHWEST ARIZONA

CITY           SKY/WX    TMP DP  RH WIND       PRES   REMARKS
BULLHEAD CITY  SUNNY     93  37  14 S9        29.93F
KINGMAN        SUNNY     83  37  19 SW12      30.10F
$$

AZZ004>008-015-016-018-250000-
NORTH CENTRAL ARIZONA

CITY           SKY/WX    TMP DP  RH WIND       PRES   REMARKS
GRAND CANYON   SUNNY     74  19  12 SW9       30.31S
PRESCOTT       SUNNY     79  36  21 S5        30.20F
FLAGSTAFF      SUNNY     70  25  18 SW12      30.35S
PAYSON         SUNNY     77  39  25 S5        30.25S
PAGE           SUNNY     77  33  20 E5        30.17F
$$

AZZ009>014-017-250000-
NORTHEAST ARIZONA

CITY           SKY/WX    TMP DP  RH WIND       PRES   REMARKS
WINSLOW        SUNNY     83  33  16 S3        30.19F
SAINT JOHNS    SUNNY     78  36  21 NW3       30.24F
WINDOW ROCK    SUNNY     77  27  15 W6        30.32S
SHOW LOW       SUNNY     72  34  25 SW7       30.32S
$$

AZZ023-250000-
GREATER PHOENIX AREA

CITY           SKY/WX    TMP DP  RH WIND       PRES   REMARKS
PHOENIX        SUNNY     95  46  18 CALM      29.94F
BUCKEYE          N/A     91  46  21 SE3       29.95F
GLENDALE       SUNNY     93  48  21 CALM      29.96F
LUKE AFB       SUNNY     97  55  24 CALM      29.95F
DEER VALLEY    SUNNY     92  42  17 CALM      29.96F
SCOTTSDALE     SUNNY     92  45  19 S3        29.98F
MESA-FALCON    SUNNY     93  46  20 CALM      29.96F
MESA-GATEWAY   SUNNY     91  48  22 CALM      29.99F
CHANDLER       SUNNY     93  48  21 VRB3      29.96F
$$

AZZ027-028-250000-
SOUTHWEST MARICOPA COUNTY AND PINAL COUNTY

CITY           SKY/WX    TMP DP  RH WIND       PRES   REMARKS
CASA GRANDE    SUNNY     91  45  19 CALM      29.98S
$$

AZZ503-504-507>509-250000-
SOUTHEAST ARIZONA

CITY           SKY/WX    TMP DP  RH WIND       PRES   REMARKS
TUCSON         SUNNY     92  43  18 NW3       30.04F
DAVIS-MONTHAN  SUNNY     90  43  19 N3        30.03S
RYAN FIELD       N/A     93  45  18 CALM      30.03F
NOGALES        SUNNY     86  43  22 W5        30.13S
SIERRA VISTA   MOSUNNY   84  43  23 CALM      30.18F
DOUGLAS        SUNNY     84  42  22 VRB3      30.15F
SAFFORD        SUNNY     85  41  21 VRB3      30.08F
$$

AZZ020-021-025-026-031-250000-
SOUTHWEST ARIZONA

CITY           SKY/WX    TMP DP  RH WIND       PRES   REMARKS
YUMA           SUNNY     97  39  13 S9        29.88F
$$

CAZ031-033-041-043-047-048-061-250000-
SOUTHERN CALIFORNIA

CITY           SKY/WX    TMP DP  RH WIND       PRES   REMARKS
DOWNTOWN L.A.  SUNNY     84  55  36 CALM      29.92S
L.A. AIRPORT   MOSUNNY   76  63  64 W9        29.93S
SAN DIEGO      SUNNY     80  59  48 VRB7      29.94R
BURBANK        SUNNY     87  26  11 SE9       29.94R
ONTARIO        SUNNY     90  38  16 W14G22    29.94R
RIVERSIDE      SUNNY     90  41  18 W8G17     29.92S
PALM SPRINGS   SUNNY     94  44  17 VRB6      29.91F
EL CENTRO NAS  SUNNY     95  45  17 CALM      29.86F
IMPERIAL       SUNNY     96  43  16 E8        29.86F
BLYTHE         SUNNY     95  45  17 S9        29.90F
NEEDLES        SUNNY     95  38  13 CALM      29.93F
$$

NVZ020-UTZ003-250000-
SOUTHERN NEVADA-UTAH

CITY           SKY/WX    TMP DP  RH WIND       PRES   REMARKS
LAS VEGAS      SUNNY     87  39  18 VRB3      29.96F
SALT LAKE CITY SUNNY     73  39  29 W9        30.09S
$$

NMZ009-TXZ055-250000-
NEW MEXICO-WEST TEXAS

CITY           SKY/WX    TMP DP  RH WIND       PRES   REMARKS
ALBUQUERQUE    SUNNY     77  31  18 S6        30.24F
EL PASO        SUNNY     83  43  24 NW3       30.16S
$$


........................KEY........................
SKY/WX - SKY CONDITION/WEATHER
TMP    - TEMPERATURE IN FAHRENHEIT
DP     - DEW POINT IN FAHRENHEIT
RH     - RELATIVE HUMIDITY IN PERCENT
WIND   - DIRECTION AND SPEED IN MILES PER HOUR (MPH)
VRB    - VARIABLE WIND DIRECTION
PRES   - MEAN SEA LEVEL PRESSURE IN INCHES OF MERCURY
         F - FALLING PRESSURE   R - RISING PRESSURE
         S - STEADY PRESSURE
VSB    - VISIBILITY IN MILES
HX     - HEAT INDEX IN FAHRENHEIT
WCI    - WIND CHILL INDEX IN FAHRENHEIT
TC     - TEMPERATURE IN CELSIUS WHICH IS ALSO KNOWN AS
         TEMPERATURE IN CENTIGRADE
AFB    - AIR FORCE BASE
         LUKE AFB IS LUKE AIR FORCE BASE
         DAVIS-MONTHAN IS DAVIS-MONTHAN AIR FORCE BASE
NAS    - NAVAL AIR STATION
         EL CENTRO NAS IS EL CENTRO NAVAL AIR STATION
N/A    - NOT AVAILABLE



USA.gov is the U.S. government's official web portal to all federal, state and local government web resources and services.